TimeEST,TemperatureF,Dew PointF,Humidity,Sea Level PressureIn,VisibilityMPH,Wind Direction,Wind SpeedMPH,Gust SpeedMPH,PrecipitationIn,Events,Conditions,WindDirDegrees,DateUTC
12:09 AM,39.2,39.2,100,29.87,2.0,ENE,5.8,-,0.00,,Overcast,70,2012-12-08 05:09:00
12:33 AM,39.2,39.2,100,29.87,1.8,ENE,5.8,-,0.00,,Overcast,70,2012-12-08 05:33:00
12:53 AM,39.9,39.0,97,29.88,1.8,NE,5.8,-,0.00,,Overcast,50,2012-12-08 05:53:00
1:08 AM,39.2,39.2,100,29.85,2.0,NE,4.6,-,N/A,,Overcast,50,2012-12-08 06:08:00
1:18 AM,39.2,39.2,100,29.85,1.8,NE,3.5,-,N/A,,Overcast,40,2012-12-08 06:18:00
1:51 AM,39.2,39.2,100,29.84,2.0,NE,5.8,-,N/A,,Overcast,50,2012-12-08 06:51:00
1:53 AM,39.9,39.0,97,29.86,2.0,NE,5.8,-,N/A,,Overcast,50,2012-12-08 06:53:00
2:03 AM,39.2,39.2,100,29.84,1.8,NE,4.6,-,N/A,,Overcast,40,2012-12-08 07:03:00
2:39 AM,39.2,39.2,100,29.84,2.0,NE,5.8,-,N/A,,Overcast,40,2012-12-08 07:39:00
2:53 AM,39.9,39.0,97,29.86,2.5,NNE,6.9,-,N/A,,Overcast,30,2012-12-08 07:53:00
3:29 AM,39.2,39.2,100,29.83,3.0,NE,5.8,-,0.00,Rain,Light Rain,40,2012-12-08 08:29:00
3:53 AM,39.0,39.0,100,29.85,3.0,NNE,4.6,-,0.00,,Overcast,30,2012-12-08 08:53:00
4:53 AM,39.0,37.9,96,29.84,4.0,NNE,6.9,-,0.00,Rain,Light Rain,20,2012-12-08 09:53:00
5:34 AM,39.2,37.4,93,29.82,4.0,NNE,6.9,-,0.02,Rain,Rain,20,2012-12-08 10:34:00
5:53 AM,37.9,37.9,100,29.84,5.0,NNE,5.8,-,0.05,Rain,Rain,20,2012-12-08 10:53:00
6:53 AM,37.9,36.0,93,29.84,8.0,NE,8.1,-,0.01,Rain,Light Rain,40,2012-12-08 11:53:00
7:53 AM,37.0,35.1,93,29.86,10.0,NE,8.1,-,0.01,Rain,Light Rain,40,2012-12-08 12:53:00
8:53 AM,37.0,35.1,93,29.87,10.0,North,9.2,-,0.00,,Overcast,350,2012-12-08 13:53:00
9:24 AM,35.6,33.8,93,29.87,2.5,North,6.9,-,0.00,Rain,Light Rain,350,2012-12-08 14:24:00
9:53 AM,35.1,34.0,96,29.91,2.5,North,6.9,-,0.01,Rain,Light Rain,360,2012-12-08 14:53:00
10:53 AM,34.0,33.1,96,29.93,2.5,NNW,6.9,-,0.01,Snow,Light Snow,340,2012-12-08 15:53:00
11:03 AM,33.8,32.0,93,29.90,3.0,North,8.1,-,0.00,Snow,Light Snow,10,2012-12-08 16:03:00
11:53 AM,34.0,33.1,96,29.93,3.0,North,9.2,-,0.01,Rain,Light Rain,360,2012-12-08 16:53:00
12:53 PM,35.1,33.1,92,29.92,10.0,North,8.1,-,0.00,,Overcast,360,2012-12-08 17:53:00
1:32 PM,35.6,33.8,93,29.90,10.0,North,11.5,18.4,N/A,,Overcast,350,2012-12-08 18:32:00
1:53 PM,36.0,32.0,86,29.94,10.0,North,10.4,-,N/A,,Overcast,350,2012-12-08 18:53:00
2:53 PM,35.1,32.0,89,29.97,10.0,NNW,9.2,-,N/A,,Overcast,330,2012-12-08 19:53:00
3:53 PM,35.1,32.0,89,30.01,10.0,NNW,10.4,-,N/A,,Overcast,330,2012-12-08 20:53:00
4:53 PM,33.1,30.0,89,30.05,10.0,NNE,10.4,-,N/A,,Overcast,20,2012-12-08 21:53:00
5:24 PM,33.8,30.2,87,30.03,10.0,NNW,9.2,-,N/A,,Overcast,340,2012-12-08 22:24:00
5:53 PM,33.1,30.0,89,30.07,10.0,North,8.1,-,N/A,,Overcast,350,2012-12-08 22:53:00
6:53 PM,33.1,28.9,85,30.10,10.0,North,5.8,-,N/A,,Overcast,10,2012-12-08 23:53:00
7:53 PM,33.1,28.9,85,30.13,10.0,North,5.8,-,N/A,,Overcast,10,2012-12-09 00:53:00
8:18 PM,33.8,28.4,81,30.11,10.0,North,8.1,-,N/A,,Overcast,360,2012-12-09 01:18:00
8:53 PM,33.1,28.0,82,30.14,10.0,North,4.6,-,N/A,,Overcast,350,2012-12-09 01:53:00
9:53 PM,33.1,27.0,78,30.15,10.0,Calm,Calm,-,N/A,,Overcast,0,2012-12-09 02:53:00
10:32 PM,32.0,26.6,80,30.12,10.0,Calm,Calm,-,N/A,,Overcast,0,2012-12-09 03:32:00
10:46 PM,32.0,26.6,80,30.13,10.0,Calm,Calm,-,N/A,,Overcast,0,2012-12-09 03:46:00
10:53 PM,32.0,27.0,82,30.17,10.0,Calm,Calm,-,N/A,,Overcast,0,2012-12-09 03:53:00
11:53 PM,32.0,28.0,85,30.18,10.0,NNE,3.5,-,N/A,,Overcast,30,2012-12-09 04:53:00